Location: Eyeline Observatory
(43.2182°N, 78.8632°W)
Time: 21:46:10
(UTC-04:00)

Vanguard 2 - All Passes

Search period start: 20 April 2018 00:00
Search period end: 30 April 2018 00:00
Orbit: 553 x 2939 km, 32.9° (Epoch: 20 April)

Date Brightness Start Highest point End Pass type
(mag) Time Alt. Az. Time Alt. Az. Time Alt. Az.
20 Apr - 02:02:25 10° SW 02:06:57 24° S 02:10:29 10° SE night (unlit)
20 Apr - 04:11:57 10° SW 04:14:25 15° SSW 04:16:44 10° SSE visible
20 Apr - 22:04:01 10° S 22:08:15 14° SSE 22:11:45 10° SE visible
21 Apr - 00:10:55 10° SW 00:16:53 24° S 00:21:11 10° ESE visible
21 Apr - 02:20:20 10° WSW 02:24:48 25° S 02:28:19 10° SE night (unlit)
21 Apr - 04:30:47 10° SW 04:32:10 11° SSW 04:33:31 10° S visible
21 Apr - 22:19:56 10° SSW 22:26:16 19° SSE 22:31:01 10° ESE visible
22 Apr - 00:28:28 10° SW 00:34:50 28° S 00:39:17 10° ESE visible
22 Apr - 02:38:22 10° WSW 02:42:38 23° SSW 02:46:01 10° SE night (unlit)
22 Apr - 20:32:33 10° SSE 20:35:02 11° SSE 20:37:19 10° SE visible
22 Apr - 22:36:40 10° SSW 22:44:16 24° SSE 22:49:36 10° ESE visible
23 Apr - 00:46:13 10° WSW 00:52:45 30° S 00:57:14 10° ESE visible
23 Apr - 02:56:33 10° WSW 03:00:24 20° SSW 03:03:34 10° SSE night (unlit)
23 Apr - 20:46:29 10° S 20:53:04 16° SSE 20:58:17 10° ESE visible
23 Apr - 22:53:53 10° SW 23:02:16 29° S 23:07:53 10° ESE visible
24 Apr - 01:04:07 10° WSW 01:10:39 31° S 01:15:07 10° ESE visible
24 Apr - 03:14:57 10° WSW 03:18:07 16° SSW 03:20:49 10° SSE night (unlit)
24 Apr - 21:02:25 10° SSW 21:11:05 22° SSE 21:17:26 10° ESE visible
24 Apr - 23:11:23 10° SW 23:20:14 33° S 23:26:00 10° ESE visible
25 Apr - 01:22:09 10° WSW 01:28:30 30° SSW 01:32:53 10° SE visible
25 Apr - 03:33:52 10° SW 03:35:47 12° SSW 03:37:30 10° S night (unlit)
25 Apr - 19:14:47 10° SSE 19:19:21 12° SSE 19:23:25 10° SE daylight
25 Apr - 21:19:04 10° SSW 21:29:05 27° SSE 21:36:02 10° ESE visible
25 Apr - 23:29:07 10° WSW 23:38:12 37° S 23:43:59 10° ESE visible
26 Apr - 01:40:17 10° WSW 01:46:18 28° SSW 01:50:33 10° SE visible
26 Apr - 19:28:55 10° S 19:37:20 18° SSE 19:44:05 10° ESE daylight
26 Apr - 21:36:10 10° SW 21:47:06 33° SSE 21:54:20 10° ESE visible
26 Apr - 23:47:01 10° WSW 23:56:08 39° S 00:01:53 10° ESE visible
27 Apr - 01:58:32 10° WSW 02:04:02 24° SSW 02:08:02 10° SSE night (unlit)
27 Apr - 19:44:40 10° SSW 19:55:19 23° SSE 20:03:19 10° ESE daylight
27 Apr - 21:53:36 10° SW 22:05:06 38° S 22:12:28 10° ESE visible
28 Apr - 00:05:01 10° WSW 00:14:01 39° S 00:19:42 10° ESE visible
28 Apr - 02:16:58 10° WSW 02:21:41 19° SSW 02:25:17 10° SSE night (unlit)
28 Apr - 17:57:57 10° SSE 18:03:13 12° SE 18:08:00 10° SE daylight
28 Apr - 20:01:10 10° SSW 20:13:18 29° SSE 20:21:59 10° ESE daylight
28 Apr - 22:11:17 10° WSW 22:23:05 42° S 22:30:30 10° ESE visible
29 Apr - 00:23:09 10° WSW 00:31:52 37° SSW 00:37:27 10° SE visible
29 Apr - 02:35:47 10° WSW 02:39:14 15° SW 02:42:05 10° S night (unlit)
29 Apr - 18:11:39 10° S 18:21:06 18° SSE 18:29:02 10° ESE daylight
29 Apr - 20:18:08 10° SW 20:31:17 35° SSE 20:40:21 10° E daylight
29 Apr - 22:29:08 10° WSW 22:41:03 45° S 22:48:27 10° ESE visible
